Location: Cardiff
(53.7833°N, 113.6000°W)
Time: 20:41:15
(UTC+00:00)

Oscar 19 - Pass Details

Date: 04 December 2023
Orbit: 771 x 789 km, 98.9° (Epoch: 04 March)

Event Time Altitude Azimuth Distance (km) Brightness Sun altitude
Rises 12:31:15 0° 16° (NNE) 3,272 14.0 -25.6°
Reaches altitude 10° 12:33:35 10° 18° (NNE) 2,342 13.3 -25.2°
Maximum altitude 12:38:45 80° 105° (ESE) 799 10.6 -24.4°
Drops below altitude 10° 12:43:56 10° 194° (SSW) 2,337 13.0 -23.7°
Sets 12:46:14 0° 195° (SSW) 3,264 13.8 -23.3°
